Year,Month,Day,Hour,Minute,Value (Times are PST for temperature in C)
2012,04,05,00,00,2.20
2012,04,05,00,01,2.20
2012,04,05,00,02,2.20
2012,04,05,00,03,2.20
2012,04,05,00,04,2.20
2012,04,05,00,05,2.20
2012,04,05,00,06,2.20
2012,04,05,00,07,2.20
2012,04,05,00,08,2.20
2012,04,05,00,09,2.20
2012,04,05,00,10,2.20
2012,04,05,00,11,2.20
2012,04,05,00,12,2.20
2012,04,05,00,13,2.20
2012,04,05,00,14,2.20
2012,04,05,00,15,2.20
2012,04,05,00,16,2.20
2012,04,05,00,17,2.10
2012,04,05,00,18,2.10
2012,04,05,00,19,2.10
2012,04,05,00,20,2.10
2012,04,05,00,21,2.10
2012,04,05,00,22,2.10
2012,04,05,00,23,2.10
2012,04,05,00,24,2.10
2012,04,05,00,25,2.00
2012,04,05,00,26,2.00
2012,04,05,00,27,2.00
2012,04,05,00,28,2.00
2012,04,05,00,29,2.00
2012,04,05,00,30,1.90
2012,04,05,00,31,1.90
2012,04,05,00,32,1.90
2012,04,05,00,33,1.90
2012,04,05,00,34,1.90
2012,04,05,00,35,1.90
2012,04,05,00,36,1.80
2012,04,05,00,37,1.80
2012,04,05,00,38,1.80
2012,04,05,00,39,1.80
2012,04,05,00,40,1.80
2012,04,05,00,41,1.70
2012,04,05,00,42,1.70
2012,04,05,00,43,1.70
2012,04,05,00,44,1.70
2012,04,05,00,45,1.70
2012,04,05,00,46,1.70
2012,04,05,00,47,1.80
2012,04,05,00,48,1.80
2012,04,05,00,49,1.80
2012,04,05,00,50,1.80
2012,04,05,00,51,1.80
2012,04,05,00,52,1.80
2012,04,05,00,53,1.80
2012,04,05,00,54,1.80
2012,04,05,00,55,1.80
2012,04,05,00,56,1.80
2012,04,05,00,57,1.80
2012,04,05,00,58,1.80
2012,04,05,00,59,1.80
2012,04,05,01,00,1.80
2012,04,05,01,01,1.80
2012,04,05,01,02,1.80
2012,04,05,01,03,1.80
2012,04,05,01,04,1.80
2012,04,05,01,05,1.80
2012,04,05,01,06,1.80
2012,04,05,01,07,1.80
2012,04,05,01,08,1.70
2012,04,05,01,09,1.70
2012,04,05,01,10,1.70
2012,04,05,01,11,1.70
2012,04,05,01,12,1.70
2012,04,05,01,13,1.70
2012,04,05,01,14,1.70
2012,04,05,01,15,1.70
2012,04,05,01,16,1.70
2012,04,05,01,17,1.70
2012,04,05,01,18,1.70
2012,04,05,01,19,1.70
2012,04,05,01,20,1.70
2012,04,05,01,21,1.70
2012,04,05,01,22,1.70
2012,04,05,01,23,1.60
2012,04,05,01,24,1.60
2012,04,05,01,25,1.60
2012,04,05,01,26,1.60
2012,04,05,01,27,1.60
2012,04,05,01,28,1.60
2012,04,05,01,29,1.60
2012,04,05,01,30,1.60
2012,04,05,01,31,1.50
2012,04,05,01,32,1.50
2012,04,05,01,33,1.50
2012,04,05,01,34,1.50
2012,04,05,01,35,1.50
2012,04,05,01,36,1.50
2012,04,05,01,37,1.50
2012,04,05,01,38,1.40
2012,04,05,01,39,1.40
2012,04,05,01,40,1.40
2012,04,05,01,41,1.40
2012,04,05,01,42,1.40
2012,04,05,01,43,1.40
2012,04,05,01,44,1.40
2012,04,05,01,45,1.40
2012,04,05,01,46,1.40
2012,04,05,01,47,1.40
2012,04,05,01,48,1.40
2012,04,05,01,49,1.40
2012,04,05,01,50,1.40
2012,04,05,01,51,1.50
2012,04,05,01,52,1.50
2012,04,05,01,53,1.50
2012,04,05,01,54,1.50
2012,04,05,01,55,1.50
2012,04,05,01,56,1.50
2012,04,05,01,57,1.50
2012,04,05,01,58,1.50
2012,04,05,01,59,1.40
2012,04,05,02,00,1.40
2012,04,05,02,01,1.40
2012,04,05,02,02,1.40
2012,04,05,02,03,1.40
2012,04,05,02,04,1.40
2012,04,05,02,05,1.40
2012,04,05,02,06,1.40
2012,04,05,02,07,1.40
2012,04,05,02,08,1.40
2012,04,05,02,09,1.40
2012,04,05,02,10,1.30
2012,04,05,02,11,1.30
2012,04,05,02,12,1.30
2012,04,05,02,13,1.30
2012,04,05,02,14,1.30
2012,04,05,02,15,1.30
2012,04,05,02,16,1.30
2012,04,05,02,17,1.30
2012,04,05,02,18,1.30
2012,04,05,02,19,1.30
2012,04,05,02,20,1.30
2012,04,05,02,21,1.30
2012,04,05,02,22,1.30
2012,04,05,02,23,1.30
2012,04,05,02,24,1.40
2012,04,05,02,25,1.40
2012,04,05,02,26,1.40
2012,04,05,02,27,1.40
2012,04,05,02,28,1.40
2012,04,05,02,29,1.40
2012,04,05,02,30,1.50
2012,04,05,02,31,1.50
2012,04,05,02,32,1.50
2012,04,05,02,33,1.60
2012,04,05,02,34,1.60
2012,04,05,02,35,1.60
2012,04,05,02,36,1.60
2012,04,05,02,37,1.70
2012,04,05,02,38,1.70
2012,04,05,02,39,1.70
2012,04,05,02,40,1.70
2012,04,05,02,41,1.70
2012,04,05,02,42,1.70
2012,04,05,02,43,1.70
2012,04,05,02,44,1.70
2012,04,05,02,45,1.70
2012,04,05,02,46,1.70
2012,04,05,02,47,1.70
2012,04,05,02,48,1.80
2012,04,05,02,49,1.80
2012,04,05,02,50,1.80
2012,04,05,02,51,1.80
2012,04,05,02,52,1.80
2012,04,05,02,53,1.80
2012,04,05,02,54,1.90
2012,04,05,02,55,1.90
2012,04,05,02,56,1.90
2012,04,05,02,57,1.90
2012,04,05,02,58,1.90
2012,04,05,02,59,1.90
2012,04,05,03,00,1.90
2012,04,05,03,01,1.90
2012,04,05,03,02,1.90
2012,04,05,03,03,2.00
2012,04,05,03,04,2.00
2012,04,05,03,05,2.00
2012,04,05,03,06,2.00
2012,04,05,03,07,2.00
2012,04,05,03,08,2.00
2012,04,05,03,09,2.10
2012,04,05,03,10,2.10
2012,04,05,03,11,2.10
2012,04,05,03,12,2.10
2012,04,05,03,13,2.10
2012,04,05,03,14,2.10
2012,04,05,03,15,2.10
2012,04,05,03,16,2.10
2012,04,05,03,17,2.10
2012,04,05,03,18,2.10
2012,04,05,03,19,2.10
2012,04,05,03,20,2.20
2012,04,05,03,21,2.20
2012,04,05,03,22,2.20
2012,04,05,03,23,2.20
2012,04,05,03,24,2.20
2012,04,05,03,25,2.30
2012,04,05,03,26,2.30
2012,04,05,03,27,2.30
2012,04,05,03,28,2.30
2012,04,05,03,29,2.30
2012,04,05,03,30,2.30
2012,04,05,03,31,2.30
2012,04,05,03,32,2.30
2012,04,05,03,33,2.40
2012,04,05,03,34,2.40
2012,04,05,03,35,2.40
2012,04,05,03,36,2.40
2012,04,05,03,37,2.40
2012,04,05,03,38,2.40
2012,04,05,03,39,2.40
2012,04,05,03,40,2.40
2012,04,05,03,41,2.40
2012,04,05,03,42,2.40
2012,04,05,03,43,2.40
2012,04,05,03,44,2.40
2012,04,05,03,45,2.40
2012,04,05,03,46,2.50
2012,04,05,03,47,2.50
2012,04,05,03,48,2.50
2012,04,05,03,49,2.50
2012,04,05,03,50,2.50
2012,04,05,03,51,2.50
2012,04,05,03,52,2.50
2012,04,05,03,53,2.50
2012,04,05,03,54,2.60
2012,04,05,03,55,2.60
2012,04,05,03,56,2.60
2012,04,05,03,57,2.60
2012,04,05,03,58,2.60
2012,04,05,03,59,2.60
2012,04,05,04,00,2.60
2012,04,05,04,01,2.60
2012,04,05,04,02,2.60
2012,04,05,04,03,2.60
2012,04,05,04,04,2.60
2012,04,05,04,05,2.60
2012,04,05,04,06,2.60
2012,04,05,04,07,2.60
2012,04,05,04,08,2.60
2012,04,05,04,09,2.70
2012,04,05,04,10,2.70
2012,04,05,04,11,2.70
2012,04,05,04,12,2.70
2012,04,05,04,13,2.70
2012,04,05,04,14,2.70
2012,04,05,04,15,2.70
2012,04,05,04,16,2.70
2012,04,05,04,17,2.70
2012,04,05,04,18,2.70
2012,04,05,04,19,2.70
2012,04,05,04,20,2.70
2012,04,05,04,21,2.70
2012,04,05,04,22,2.70
2012,04,05,04,23,2.70
2012,04,05,04,24,2.70
2012,04,05,04,25,2.70
2012,04,05,04,26,2.70
2012,04,05,04,27,2.70
2012,04,05,04,28,2.70
2012,04,05,04,29,2.70
2012,04,05,04,30,2.70
2012,04,05,04,31,2.70
2012,04,05,04,32,2.70
2012,04,05,04,33,2.70
2012,04,05,04,34,2.70
2012,04,05,04,35,2.70
2012,04,05,04,36,2.70
2012,04,05,04,37,2.70
2012,04,05,04,38,2.80
2012,04,05,04,39,2.80
2012,04,05,04,40,2.80
2012,04,05,04,41,2.80
2012,04,05,04,42,2.80
2012,04,05,04,43,2.80
2012,04,05,04,44,2.80
2012,04,05,04,45,2.80
2012,04,05,04,46,2.80
2012,04,05,04,47,2.80
2012,04,05,04,48,2.80
2012,04,05,04,49,2.80
2012,04,05,04,50,2.80
2012,04,05,04,51,2.80
2012,04,05,04,52,2.80
2012,04,05,04,53,2.80
2012,04,05,04,54,2.80
2012,04,05,04,55,2.90
2012,04,05,04,56,2.90
2012,04,05,04,57,2.90
2012,04,05,04,58,2.90
2012,04,05,04,59,2.90
2012,04,05,05,00,2.90
2012,04,05,05,01,2.90
2012,04,05,05,02,3.00
2012,04,05,05,03,3.00
2012,04,05,05,04,3.00
2012,04,05,05,05,3.00
2012,04,05,05,06,3.10
2012,04,05,05,07,3.10
2012,04,05,05,08,3.10
2012,04,05,05,09,3.10
2012,04,05,05,10,3.10
2012,04,05,05,11,3.20
2012,04,05,05,12,3.20
2012,04,05,05,13,3.20
2012,04,05,05,14,3.20
2012,04,05,05,15,3.20
2012,04,05,05,16,3.20
2012,04,05,05,17,3.20
2012,04,05,05,18,3.20
2012,04,05,05,19,3.20
2012,04,05,05,20,3.20
2012,04,05,05,21,3.20
2012,04,05,05,22,3.20
2012,04,05,05,23,3.20
2012,04,05,05,24,3.20
2012,04,05,05,25,3.20
2012,04,05,05,26,3.20
2012,04,05,05,27,3.20
2012,04,05,05,28,3.20
2012,04,05,05,29,3.20
2012,04,05,05,30,3.20
2012,04,05,05,31,3.20
2012,04,05,05,32,3.20
2012,04,05,05,33,3.20
2012,04,05,05,34,3.20
2012,04,05,05,35,3.20
2012,04,05,05,36,3.20
2012,04,05,05,37,3.20
2012,04,05,05,38,3.20
2012,04,05,05,39,3.20
2012,04,05,05,40,3.20
2012,04,05,05,41,3.20
2012,04,05,05,42,3.20
2012,04,05,05,43,3.20
2012,04,05,05,44,3.20
2012,04,05,05,45,3.20
2012,04,05,05,46,3.20
2012,04,05,05,47,3.20
2012,04,05,05,48,3.20
2012,04,05,05,49,3.20
2012,04,05,05,50,3.20
2012,04,05,05,51,3.20
2012,04,05,05,52,3.20
2012,04,05,05,53,3.20
2012,04,05,05,54,3.20
2012,04,05,05,55,3.20
2012,04,05,05,56,3.20
2012,04,05,05,57,3.20
2012,04,05,05,58,3.10
2012,04,05,05,59,3.10
2012,04,05,06,00,3.10
2012,04,05,06,01,3.10
2012,04,05,06,02,3.10
2012,04,05,06,03,3.10
2012,04,05,06,04,3.10
2012,04,05,06,05,3.10
2012,04,05,06,06,3.10
2012,04,05,06,07,3.10
2012,04,05,06,08,3.10
2012,04,05,06,09,3.10
2012,04,05,06,10,3.10
2012,04,05,06,11,3.10
2012,04,05,06,12,3.10
2012,04,05,06,13,3.10
2012,04,05,06,14,3.10
2012,04,05,06,15,3.10
2012,04,05,06,16,3.00
2012,04,05,06,17,3.00
2012,04,05,06,18,3.00
2012,04,05,06,19,3.00
2012,04,05,06,20,3.00
2012,04,05,06,21,3.00
2012,04,05,06,22,3.00
2012,04,05,06,23,3.00
2012,04,05,06,24,3.00
2012,04,05,06,25,3.00
2012,04,05,06,26,3.00
2012,04,05,06,27,3.00
2012,04,05,06,28,2.90
2012,04,05,06,29,2.90
2012,04,05,06,30,2.90
2012,04,05,06,31,2.90
2012,04,05,06,32,2.90
2012,04,05,06,33,2.90
2012,04,05,06,34,2.90
2012,04,05,06,35,2.90
2012,04,05,06,36,2.90
2012,04,05,06,37,2.90
2012,04,05,06,38,2.90
2012,04,05,06,39,2.90
2012,04,05,06,40,2.90
2012,04,05,06,41,2.90
2012,04,05,06,42,2.90
2012,04,05,06,43,2.90
2012,04,05,06,44,2.90
2012,04,05,06,45,2.90
2012,04,05,06,46,2.90
2012,04,05,06,47,2.90
2012,04,05,06,48,2.90
2012,04,05,06,49,2.90
2012,04,05,06,50,2.90
2012,04,05,06,51,3.00
2012,04,05,06,52,3.00
2012,04,05,06,53,3.00
2012,04,05,06,54,3.00
2012,04,05,06,55,3.00
2012,04,05,06,56,3.00
2012,04,05,06,57,3.00
2012,04,05,06,58,3.00
2012,04,05,06,59,3.00
2012,04,05,07,00,3.00
2012,04,05,07,01,3.10
2012,04,05,07,02,3.10
2012,04,05,07,03,3.10
2012,04,05,07,04,3.10
2012,04,05,07,05,3.10
2012,04,05,07,06,3.10
2012,04,05,07,07,3.10
2012,04,05,07,08,3.10
2012,04,05,07,09,3.20
2012,04,05,07,10,3.20
2012,04,05,07,11,3.20
2012,04,05,07,12,3.20
2012,04,05,07,13,3.20
2012,04,05,07,14,3.20
2012,04,05,07,15,3.20
2012,04,05,07,16,3.30
2012,04,05,07,17,3.30
2012,04,05,07,18,3.30
2012,04,05,07,19,3.30
2012,04,05,07,20,3.30
2012,04,05,07,21,3.40
2012,04,05,07,22,3.40
2012,04,05,07,23,3.40
2012,04,05,07,24,3.50
2012,04,05,07,25,3.50
2012,04,05,07,26,3.50
2012,04,05,07,27,3.60
2012,04,05,07,28,3.60
2012,04,05,07,29,3.60
2012,04,05,07,30,3.60
2012,04,05,07,31,3.60
2012,04,05,07,32,3.60
2012,04,05,07,33,3.60
2012,04,05,07,34,3.60
2012,04,05,07,35,3.60
2012,04,05,07,36,3.60
2012,04,05,07,37,3.60
2012,04,05,07,38,3.70
2012,04,05,07,39,3.70
2012,04,05,07,40,3.70
2012,04,05,07,41,3.70
2012,04,05,07,42,3.70
2012,04,05,07,43,3.70
2012,04,05,07,44,3.70
2012,04,05,07,45,3.70
2012,04,05,07,46,3.70
2012,04,05,07,47,3.70
2012,04,05,07,48,3.70
2012,04,05,07,49,3.70
2012,04,05,07,50,3.70
2012,04,05,07,51,3.70
2012,04,05,07,52,3.70
2012,04,05,07,53,3.70
2012,04,05,07,54,3.70
2012,04,05,07,55,3.80
2012,04,05,07,56,3.80
2012,04,05,07,57,3.80
2012,04,05,07,58,3.80
2012,04,05,07,59,3.90
2012,04,05,08,00,3.90
2012,04,05,08,01,3.90
2012,04,05,08,02,3.90
2012,04,05,08,03,3.90
2012,04,05,08,04,3.90
2012,04,05,08,05,3.90
2012,04,05,08,06,4.00
2012,04,05,08,07,4.00
2012,04,05,08,08,4.00
2012,04,05,08,09,4.10
2012,04,05,08,10,4.10
2012,04,05,08,11,4.10
2012,04,05,08,12,4.10
2012,04,05,08,13,4.20
2012,04,05,08,14,4.20
2012,04,05,08,15,4.20
2012,04,05,08,16,4.20
2012,04,05,08,17,4.20
2012,04,05,08,18,4.30
2012,04,05,08,19,4.30
2012,04,05,08,20,4.30
2012,04,05,08,21,4.30
2012,04,05,08,22,4.30
2012,04,05,08,23,4.30
2012,04,05,08,24,4.30
2012,04,05,08,25,4.30
2012,04,05,08,26,4.30
2012,04,05,08,27,4.30
2012,04,05,08,28,4.30
2012,04,05,08,29,4.30
2012,04,05,08,30,4.30
2012,04,05,08,31,4.30
2012,04,05,08,32,4.40
2012,04,05,08,33,4.40
2012,04,05,08,34,4.40
2012,04,05,08,35,4.40
2012,04,05,08,36,4.40
2012,04,05,08,37,4.40
2012,04,05,08,38,4.40
2012,04,05,08,39,4.40
2012,04,05,08,40,4.40
2012,04,05,08,41,4.40
2012,04,05,08,42,4.40
2012,04,05,08,43,4.50
2012,04,05,08,44,4.50
2012,04,05,08,45,4.50
2012,04,05,08,46,4.50
2012,04,05,08,47,4.50
2012,04,05,08,48,4.50
2012,04,05,08,49,4.50
2012,04,05,08,50,4.50
2012,04,05,08,51,4.50
2012,04,05,08,52,4.50
2012,04,05,08,53,4.50
2012,04,05,08,54,4.50
2012,04,05,08,55,4.50
2012,04,05,08,56,4.50
2012,04,05,08,57,4.50
2012,04,05,08,58,4.50
2012,04,05,08,59,4.60
2012,04,05,09,00,4.60
2012,04,05,09,01,4.60
2012,04,05,09,02,4.60
2012,04,05,09,03,4.60
2012,04,05,09,04,4.60
2012,04,05,09,05,4.60
2012,04,05,09,06,4.60
2012,04,05,09,07,4.60
2012,04,05,09,08,4.60
2012,04,05,09,09,4.60
2012,04,05,09,10,4.60
2012,04,05,09,11,4.70
2012,04,05,09,12,4.70
2012,04,05,09,13,4.70
2012,04,05,09,14,4.70
2012,04,05,09,15,4.70
2012,04,05,09,16,4.70
2012,04,05,09,17,4.70
2012,04,05,09,18,4.70
2012,04,05,09,19,4.60
2012,04,05,09,20,4.60
2012,04,05,09,21,4.60
2012,04,05,09,22,4.60
2012,04,05,09,23,4.60
2012,04,05,09,24,4.60
2012,04,05,09,25,4.60
2012,04,05,09,26,4.60
2012,04,05,09,27,4.60
2012,04,05,09,28,4.60
2012,04,05,09,29,4.70
2012,04,05,09,30,4.70
2012,04,05,09,31,4.70
2012,04,05,09,32,4.70
2012,04,05,09,33,4.70
2012,04,05,09,34,4.70
2012,04,05,09,35,4.80
2012,04,05,09,36,4.80
2012,04,05,09,37,4.80
2012,04,05,09,38,4.80
2012,04,05,09,39,4.80
2012,04,05,09,40,4.80
2012,04,05,09,41,4.80
2012,04,05,09,42,4.90
2012,04,05,09,43,4.90
2012,04,05,09,44,4.90
2012,04,05,09,45,5.00
2012,04,05,09,46,5.00
2012,04,05,09,47,5.10
2012,04,05,09,48,5.10
2012,04,05,09,49,5.10
2012,04,05,09,50,5.10
2012,04,05,09,51,5.10
2012,04,05,09,52,5.10
2012,04,05,09,53,5.10
2012,04,05,09,54,5.10
2012,04,05,09,55,5.10
2012,04,05,09,56,5.20
2012,04,05,09,57,5.20
2012,04,05,09,58,5.20
2012,04,05,09,59,5.30
2012,04,05,10,00,5.30
2012,04,05,10,01,5.40
2012,04,05,10,02,5.40
2012,04,05,10,03,5.40
2012,04,05,10,04,5.50
2012,04,05,10,05,5.60
2012,04,05,10,06,5.60
2012,04,05,10,07,5.70
2012,04,05,10,08,5.80
2012,04,05,10,09,5.90
2012,04,05,10,10,6.00
2012,04,05,10,11,6.10
2012,04,05,10,12,6.10
2012,04,05,10,13,6.10
2012,04,05,10,14,6.10
2012,04,05,10,15,6.20
2012,04,05,10,16,6.20
2012,04,05,10,17,6.20
2012,04,05,10,18,6.30
2012,04,05,10,19,6.30
2012,04,05,10,20,6.30
2012,04,05,10,21,6.30
2012,04,05,10,22,6.30
2012,04,05,10,23,6.40
2012,04,05,10,24,6.40
2012,04,05,10,25,6.40
2012,04,05,10,26,6.40
2012,04,05,10,27,6.50
2012,04,05,10,28,6.50
2012,04,05,10,29,6.50
2012,04,05,10,30,6.60
2012,04,05,10,31,6.60
2012,04,05,10,32,6.70
2012,04,05,10,33,6.70
2012,04,05,10,34,6.80
2012,04,05,10,35,6.80
2012,04,05,10,36,6.90
2012,04,05,10,37,6.90
2012,04,05,10,38,6.90
2012,04,05,10,39,7.00
2012,04,05,10,40,7.00
2012,04,05,10,41,7.00
2012,04,05,10,42,7.00
2012,04,05,10,43,7.00
2012,04,05,10,44,6.90
2012,04,05,10,45,6.90
2012,04,05,10,46,6.90
2012,04,05,10,47,6.90
2012,04,05,10,48,6.90
2012,04,05,10,49,6.90
2012,04,05,10,50,6.90
2012,04,05,10,51,6.90
2012,04,05,10,52,6.90
2012,04,05,10,53,6.90
2012,04,05,10,54,6.90
2012,04,05,10,55,7.00
2012,04,05,10,56,7.10
2012,04,05,10,57,7.20
2012,04,05,10,58,7.20
2012,04,05,10,59,7.20
2012,04,05,11,00,7.20
2012,04,05,11,01,7.20
2012,04,05,11,02,7.20
2012,04,05,11,03,7.20
2012,04,05,11,04,7.20
2012,04,05,11,05,7.20
2012,04,05,11,06,7.20
2012,04,05,11,07,7.30
2012,04,05,11,08,7.30
2012,04,05,11,09,7.40
2012,04,05,11,10,7.40
2012,04,05,11,11,7.40
2012,04,05,11,12,7.40
2012,04,05,11,13,7.40
2012,04,05,11,14,7.40
2012,04,05,11,15,7.40
2012,04,05,11,16,7.40
2012,04,05,11,17,7.40
2012,04,05,11,18,7.40
2012,04,05,11,19,7.50
2012,04,05,11,20,7.50
2012,04,05,11,21,7.50
2012,04,05,11,22,7.60
2012,04,05,11,23,7.60
2012,04,05,11,24,7.50
2012,04,05,11,25,7.50
2012,04,05,11,26,7.40
2012,04,05,11,27,7.40
2012,04,05,11,28,7.40
2012,04,05,11,29,7.30
2012,04,05,11,30,7.30
2012,04,05,11,31,7.30
2012,04,05,11,32,7.40
2012,04,05,11,33,7.40
2012,04,05,11,34,7.40
2012,04,05,11,35,7.40
2012,04,05,11,36,7.40
2012,04,05,11,37,7.40
2012,04,05,11,38,7.40
2012,04,05,11,39,7.40
2012,04,05,11,40,7.30
2012,04,05,11,41,7.30
2012,04,05,11,42,7.30
2012,04,05,11,43,7.30
2012,04,05,11,44,7.30
2012,04,05,11,45,7.30
2012,04,05,11,46,7.30
2012,04,05,11,47,7.30
2012,04,05,11,48,7.30
2012,04,05,11,49,7.20
2012,04,05,11,50,7.20
2012,04,05,11,51,7.20
2012,04,05,11,52,7.10
2012,04,05,11,53,7.10
2012,04,05,11,54,7.10
2012,04,05,11,55,7.00
2012,04,05,11,56,6.90
2012,04,05,11,57,6.90
2012,04,05,11,58,6.80
2012,04,05,11,59,6.70
2012,04,05,12,00,6.70
2012,04,05,12,01,6.70
2012,04,05,12,02,6.60
2012,04,05,12,03,6.60
2012,04,05,12,04,6.60
2012,04,05,12,05,6.60
2012,04,05,12,06,6.50
2012,04,05,12,07,6.50
2012,04,05,12,08,6.50
2012,04,05,12,09,6.40
2012,04,05,12,10,6.40
2012,04,05,12,11,6.40
2012,04,05,12,12,6.40
2012,04,05,12,13,6.40
2012,04,05,12,14,6.40
2012,04,05,12,15,6.40
2012,04,05,12,16,6.30
2012,04,05,12,17,6.30
2012,04,05,12,18,6.30
2012,04,05,12,19,6.30
2012,04,05,12,20,6.30
2012,04,05,12,21,6.30
2012,04,05,12,22,6.30
2012,04,05,12,23,6.30
2012,04,05,12,24,6.30
2012,04,05,12,25,6.30
2012,04,05,12,26,6.30
2012,04,05,12,27,6.30
2012,04,05,12,28,6.30
2012,04,05,12,29,6.40
2012,04,05,12,30,6.40
2012,04,05,12,31,6.40
2012,04,05,12,32,6.40
2012,04,05,12,33,6.40
2012,04,05,12,34,6.50
2012,04,05,12,35,6.50
2012,04,05,12,36,6.50
2012,04,05,12,37,6.40
2012,04,05,12,38,6.40
2012,04,05,12,39,6.40
2012,04,05,12,40,6.50
2012,04,05,12,41,6.50
2012,04,05,12,42,6.60
2012,04,05,12,43,6.60
2012,04,05,12,44,6.60
2012,04,05,12,45,6.60
2012,04,05,12,46,6.70
2012,04,05,12,47,6.70
2012,04,05,12,48,6.80
2012,04,05,12,49,6.80
2012,04,05,12,50,6.90
2012,04,05,12,51,6.90
2012,04,05,12,52,6.90
2012,04,05,12,53,7.00
2012,04,05,12,54,7.00
2012,04,05,12,55,7.00
2012,04,05,12,56,7.00
2012,04,05,12,57,7.10
2012,04,05,12,58,7.10
2012,04,05,12,59,7.10
2012,04,05,13,00,7.10
2012,04,05,13,01,7.10
2012,04,05,13,02,7.10
2012,04,05,13,03,7.10
2012,04,05,13,04,7.10
2012,04,05,13,05,7.10
2012,04,05,13,06,7.10
2012,04,05,13,07,7.10
2012,04,05,13,08,7.10
2012,04,05,13,09,7.10
2012,04,05,13,10,7.20
2012,04,05,13,11,7.20
2012,04,05,13,12,7.20
2012,04,05,13,13,7.30
2012,04,05,13,14,7.30
2012,04,05,13,15,7.40
2012,04,05,13,16,7.50
2012,04,05,13,17,7.60
2012,04,05,13,18,7.60
2012,04,05,13,19,7.70
2012,04,05,13,20,7.80
2012,04,05,13,21,7.90
2012,04,05,13,22,7.90
2012,04,05,13,23,7.90
2012,04,05,13,24,7.90
2012,04,05,13,25,8.00
2012,04,05,13,26,8.00
2012,04,05,13,27,8.10
2012,04,05,13,28,8.10
2012,04,05,13,29,8.20
2012,04,05,13,30,8.30
2012,04,05,13,31,8.40
2012,04,05,13,32,8.50
2012,04,05,13,33,8.70
2012,04,05,13,34,8.80
2012,04,05,13,35,8.90
2012,04,05,13,36,8.90
2012,04,05,13,37,8.90
2012,04,05,13,38,8.90
2012,04,05,13,39,8.90
2012,04,05,13,40,8.80
2012,04,05,13,41,8.90
2012,04,05,13,42,8.90
2012,04,05,13,43,8.90
2012,04,05,13,44,8.90
2012,04,05,13,45,8.80
2012,04,05,13,46,8.80
2012,04,05,13,47,8.80
2012,04,05,13,48,8.80
2012,04,05,13,49,8.90
2012,04,05,13,50,9.00
2012,04,05,13,51,9.10
2012,04,05,13,52,9.20
2012,04,05,13,53,9.30
2012,04,05,13,54,9.40
2012,04,05,13,55,9.40
2012,04,05,13,56,9.40
2012,04,05,13,57,9.40
2012,04,05,13,58,9.20
2012,04,05,13,59,9.10
2012,04,05,14,00,9.10
2012,04,05,14,01,9.00
2012,04,05,14,02,8.90
2012,04,05,14,03,8.70
2012,04,05,14,04,8.50
2012,04,05,14,05,8.40
2012,04,05,14,06,8.20
2012,04,05,14,07,8.00
2012,04,05,14,08,7.80
2012,04,05,14,09,7.70
2012,04,05,14,10,7.60
2012,04,05,14,11,7.50
2012,04,05,14,12,7.50
2012,04,05,14,13,7.50
2012,04,05,14,14,7.50
2012,04,05,14,15,7.60
2012,04,05,14,16,7.60
2012,04,05,14,17,7.60
2012,04,05,14,18,7.70
2012,04,05,14,19,7.70
2012,04,05,14,20,7.70
2012,04,05,14,21,7.70
2012,04,05,14,22,7.70
2012,04,05,14,23,7.70
2012,04,05,14,24,7.70
2012,04,05,14,25,7.70
2012,04,05,14,26,7.80
2012,04,05,14,27,7.80
2012,04,05,14,28,7.80
2012,04,05,14,29,7.90
2012,04,05,14,30,7.90
2012,04,05,14,31,7.90
2012,04,05,14,32,8.00
2012,04,05,14,33,8.10
2012,04,05,14,34,8.20
2012,04,05,14,35,8.20
2012,04,05,14,36,8.30
2012,04,05,14,37,8.30
2012,04,05,14,38,8.40
2012,04,05,14,39,8.40
2012,04,05,14,40,8.40
2012,04,05,14,41,8.50
2012,04,05,14,42,8.60
2012,04,05,14,43,8.70
2012,04,05,14,44,8.80
2012,04,05,14,45,8.70
2012,04,05,14,46,8.70
2012,04,05,14,47,8.60
2012,04,05,14,48,8.60
2012,04,05,14,49,8.60
2012,04,05,14,50,8.50
2012,04,05,14,51,8.50
2012,04,05,14,52,8.60
2012,04,05,14,53,8.60
2012,04,05,14,54,8.60
2012,04,05,14,55,8.60
2012,04,05,14,56,8.60
2012,04,05,14,57,8.60
2012,04,05,14,58,8.60
2012,04,05,14,59,8.60
2012,04,05,15,00,8.60
2012,04,05,15,01,8.60
2012,04,05,15,02,8.50
2012,04,05,15,03,8.50
2012,04,05,15,04,8.60
2012,04,05,15,05,8.60
2012,04,05,15,06,8.60
2012,04,05,15,07,8.70
2012,04,05,15,08,8.70
2012,04,05,15,09,8.70
2012,04,05,15,10,8.70
2012,04,05,15,11,8.70
2012,04,05,15,12,8.70
2012,04,05,15,13,8.70
2012,04,05,15,14,8.70
2012,04,05,15,15,8.70
2012,04,05,15,16,8.80
2012,04,05,15,17,8.80
2012,04,05,15,18,8.80
2012,04,05,15,19,8.80
2012,04,05,15,20,8.80
2012,04,05,15,21,8.80
2012,04,05,15,22,8.80
2012,04,05,15,23,8.80
2012,04,05,15,24,8.80
2012,04,05,15,25,8.90
2012,04,05,15,26,8.90
2012,04,05,15,27,9.00
2012,04,05,15,28,9.10
2012,04,05,15,29,9.10
2012,04,05,15,30,9.10
2012,04,05,15,31,9.10
2012,04,05,15,32,9.10
2012,04,05,15,33,9.20
2012,04,05,15,34,9.20
2012,04,05,15,35,9.20
2012,04,05,15,36,9.30
2012,04,05,15,37,9.30
2012,04,05,15,38,9.30
2012,04,05,15,39,9.30
2012,04,05,15,40,9.30
2012,04,05,15,41,9.30
2012,04,05,15,42,9.30
2012,04,05,15,43,9.40
2012,04,05,15,44,9.40
2012,04,05,15,45,9.40
2012,04,05,15,46,9.40
2012,04,05,15,47,9.40
2012,04,05,15,48,9.40
2012,04,05,15,49,9.40
2012,04,05,15,50,9.30
2012,04,05,15,51,9.30
2012,04,05,15,52,9.30
2012,04,05,15,53,9.30
2012,04,05,15,54,9.30
2012,04,05,15,55,9.30
2012,04,05,15,56,9.40
2012,04,05,15,57,9.40
2012,04,05,15,58,9.40
2012,04,05,15,59,9.40
2012,04,05,16,00,9.40
2012,04,05,16,01,9.40
2012,04,05,16,02,9.40
2012,04,05,16,03,9.40
2012,04,05,16,04,9.30
2012,04,05,16,05,9.30
2012,04,05,16,06,9.20
2012,04,05,16,07,9.20
2012,04,05,16,08,9.10
2012,04,05,16,09,9.00
2012,04,05,16,10,9.00
2012,04,05,16,11,9.00
2012,04,05,16,12,8.90
2012,04,05,16,13,8.90
2012,04,05,16,14,8.90
2012,04,05,16,15,8.90
2012,04,05,16,16,9.00
2012,04,05,16,17,9.10
2012,04,05,16,18,9.10
2012,04,05,16,19,9.10
2012,04,05,16,20,9.10
2012,04,05,16,21,9.10
2012,04,05,16,22,9.10
2012,04,05,16,23,9.10
2012,04,05,16,24,9.10
2012,04,05,16,25,9.00
2012,04,05,16,26,9.00
2012,04,05,16,27,9.00
2012,04,05,16,28,8.90
2012,04,05,16,29,8.90
2012,04,05,16,30,8.80
2012,04,05,16,31,8.80
2012,04,05,16,32,8.70
2012,04,05,16,33,8.60
2012,04,05,16,34,8.60
2012,04,05,16,35,8.50
2012,04,05,16,36,8.50
2012,04,05,16,37,8.50
2012,04,05,16,38,8.50
2012,04,05,16,39,8.50
2012,04,05,16,40,8.60
2012,04,05,16,41,8.60
2012,04,05,16,42,8.60
2012,04,05,16,43,8.60
2012,04,05,16,44,8.70
2012,04,05,16,45,8.70
2012,04,05,16,46,8.80
2012,04,05,16,47,8.90
2012,04,05,16,48,9.00
2012,04,05,16,49,9.10
2012,04,05,16,50,9.20
2012,04,05,16,51,9.40
2012,04,05,16,52,9.40
2012,04,05,16,53,9.50
2012,04,05,16,54,9.70
2012,04,05,16,55,9.80
2012,04,05,16,56,10.00
2012,04,05,16,57,10.10
2012,04,05,16,58,10.10
2012,04,05,16,59,10.20
2012,04,05,17,00,10.30
2012,04,05,17,01,10.30
2012,04,05,17,02,10.40
2012,04,05,17,03,10.40
2012,04,05,17,04,10.30
2012,04,05,17,05,10.20
2012,04,05,17,06,10.20
2012,04,05,17,07,10.20
2012,04,05,17,08,10.30
2012,04,05,17,09,10.30
2012,04,05,17,10,10.40
2012,04,05,17,11,10.50
2012,04,05,17,12,10.50
2012,04,05,17,13,10.40
2012,04,05,17,14,10.40
2012,04,05,17,15,10.40
2012,04,05,17,16,10.30
2012,04,05,17,17,10.30
2012,04,05,17,18,10.30
2012,04,05,17,19,10.30
2012,04,05,17,20,10.30
2012,04,05,17,21,10.30
2012,04,05,17,22,10.30
2012,04,05,17,23,10.30
2012,04,05,17,24,10.30
2012,04,05,17,25,10.30
2012,04,05,17,26,10.30
2012,04,05,17,27,10.30
2012,04,05,17,28,10.30
2012,04,05,17,29,10.20
2012,04,05,17,30,10.20
2012,04,05,17,31,10.20
2012,04,05,17,32,10.20
2012,04,05,17,33,10.20
2012,04,05,17,34,10.20
2012,04,05,17,35,10.20
2012,04,05,17,36,10.10
2012,04,05,17,37,10.10
2012,04,05,17,38,10.10
2012,04,05,17,39,10.10
2012,04,05,17,40,10.10
2012,04,05,17,41,10.10
2012,04,05,17,42,10.10
2012,04,05,17,43,10.10
2012,04,05,17,44,10.10
2012,04,05,17,45,10.00
2012,04,05,17,46,9.90
2012,04,05,17,47,9.90
2012,04,05,17,48,9.80
2012,04,05,17,49,9.80
2012,04,05,17,50,9.80
2012,04,05,17,51,9.80
2012,04,05,17,52,9.70
2012,04,05,17,53,9.70
2012,04,05,17,54,9.60
2012,04,05,17,55,9.60
2012,04,05,17,56,9.50
2012,04,05,17,57,9.50
2012,04,05,17,58,9.40
2012,04,05,17,59,9.40
2012,04,05,18,00,9.40
2012,04,05,18,01,9.30
2012,04,05,18,02,9.30
2012,04,05,18,03,9.20
2012,04,05,18,04,9.20